Montague, CA

4:36 PM PST on January 18, 2017 (GMT -0800)
Siskiyou County

Weather History for KSIY - September, 2013

Change the Weather History Date:

Thursday, September 26, 2013

  Actual Average Record
Temperature  
Mean Temperature 49 °F 59 °F  
Max Temperature 60 °F 78 °F 98 °F (1994)
Min Temperature 37 °F 40 °F 31 °F (1948)
Degree Days  
Heating Degree Days 16 7  
Month to date heating degree days 105 96  
Since 1 July heating degree days 105 113  
Cooling Degree Days 0 1  
Month to date cooling degree days 87 42  
Year to date cooling degree days 776 543  
Moisture  
Dew Point 36 °F    
Average Humidity 65    
Maximum Humidity 92    
Minimum Humidity 33    
Precipitation  
Precipitation T in 0.03 in 0.18 in (1972)
Month to date precipitation 0.23 0.51  
Year to date precipitation 4.56 11.51  
Sea Level Pressure  
Sea Level Pressure 30.12 in    
Wind  
Wind Speed 6 mph (NNW)    
Max Wind Speed 18 mph    
Max Gust Speed 23 mph    
Visibility 10 miles    
Events      
T = Trace of Precipitation, MM = Missing Value Source: NWS Daily Summary

Daily Weather History Graph

Daily Weather History Graph

Search for Another Location

Airport or City:

Trip Planner

Search our weather history database for the weather conditions in past years. The results will help you decide how hot, cold, wet, or windy it might be!

Date:

Astronomy

Sep. 26, 2013 Rise Set
Actual Time 7:01 AM PDT 6:59 PM PDT
Civil Twilight 6:34 AM PDT 7:27 PM PDT
Nautical Twilight 6:01 AM PDT 7:59 PM PDT
Astronomical Twilight 5:28 AM PDT 8:32 PM PDT
Moon 11:58 PM PDT (9/26) 2:02 PM PDT (9/26)
Length of Visible Light 12h 53m
Length of Day
11h 57m
Waning Gibbous, 53% of the Moon is Illuminated
Sep 26
Waning Gibbous
Sep 26
Last Quarter
Oct 4
New
Oct 11
First Quarter
Oct 18
Full

Hourly Weather History & Observations

Time (PDT) Temp. Windchill Dew Point Humidity Pressure Visibility Wind Dir Wind Speed Gust Speed Precip Events Conditions
12:53 AM 46.0 °F 41.0 °F 37.0 °F 71% 30.05 in 10.0 mi North 10.4 mph - N/A   Overcast
1:53 AM 46.0 °F 42.5 °F 37.0 °F 71% 30.06 in 10.0 mi North 6.9 mph - N/A   Overcast
2:53 AM 45.0 °F 42.6 °F 37.0 °F 74% 30.07 in 10.0 mi NNW 4.6 mph - N/A   Overcast
3:53 AM 44.1 °F - 37.0 °F 76% 30.07 in 10.0 mi Calm Calm - N/A   Mostly Cloudy
4:53 AM 39.0 °F 36.8 °F 35.1 °F 86% 30.07 in 10.0 mi SW 3.5 mph - N/A   Partly Cloudy
5:53 AM 39.0 °F - 36.0 °F 89% 30.07 in 10.0 mi Calm Calm - N/A   Mostly Cloudy
6:53 AM 37.9 °F - 35.1 °F 89% 30.09 in 10.0 mi Calm Calm - N/A   Overcast
7:53 AM 39.0 °F - 36.0 °F 89% 30.12 in 10.0 mi Calm Calm - N/A   Overcast
8:53 AM 42.1 °F - 37.9 °F 85% 30.12 in 10.0 mi Calm Calm - N/A   Overcast
9:53 AM 45.0 °F - 37.9 °F 76% 30.13 in 10.0 mi Calm Calm - N/A   Mostly Cloudy
10:53 AM 51.1 °F - 37.9 °F 61% 30.12 in 10.0 mi Calm Calm - N/A   Overcast
11:53 AM 54.0 °F - 37.0 °F 53% 30.12 in 10.0 mi North 9.2 mph - 0.00 in   Scattered Clouds
12:53 PM 55.0 °F - 36.0 °F 49% 30.11 in 10.0 mi North 13.8 mph - N/A   Overcast
1:53 PM 57.0 °F - 35.1 °F 44% 30.09 in 10.0 mi NNW 15.0 mph 19.6 mph N/A   Partly Cloudy
2:53 PM 57.0 °F - 33.1 °F 40% 30.10 in 10.0 mi NW 6.9 mph - N/A   Overcast
3:53 PM 59.0 °F - 30.9 °F 35% 30.09 in 10.0 mi NW 12.7 mph - N/A   Scattered Clouds
4:53 PM 57.9 °F - 32.0 °F 37% 30.11 in 10.0 mi NNE 13.8 mph - N/A   Partly Cloudy
5:53 PM 55.0 °F - 34.0 °F 45% 30.13 in 10.0 mi North 9.2 mph - N/A   Scattered Clouds
6:53 PM 52.0 °F - 35.1 °F 53% 30.14 in 10.0 mi North 11.5 mph - N/A   Clear
7:53 PM 51.1 °F - 35.1 °F 54% 30.15 in 10.0 mi North 15.0 mph - N/A   Clear
8:53 PM 48.0 °F - 35.1 °F 61% 30.18 in 10.0 mi Calm Calm - N/A   Clear
9:53 PM 45.0 °F 41.8 °F 36.0 °F 71% 30.20 in 10.0 mi North 5.8 mph - N/A   Clear
10:53 PM 42.1 °F 37.1 °F 35.1 °F 76% 30.21 in 10.0 mi North 8.1 mph - N/A   Clear
11:53 PM 43.0 °F - 35.1 °F 74% 30.22 in 10.0 mi Calm Calm - N/A   Clear